[[{"header":{"parameterUnit":"m.s-1","parameterCategory":1,"la1":30.2992,"la2":30.254,"lo1":-89.0895,"lo2":-89.0443,"dy":0.0025,"dx":0.0025,"nx":19,"ny":19,"refTime":"2026-04-04T03:00:00:Z","depth":0,"parameterNumber":2,"parameterNumberName":"U-component_of_WINDS"},"data":[0,0,0,-4.639,-4.6393,-4.6575,-4.6575,-4.6808,-4.681,0,0,0,0,0,0,0,0,0,0,0,-4.6337,-4.6338,-4.6389,-4.6394,-4.6575,-4.6575,-4.6808,-4.681,0,0,0,0,0,0,0,0,0,0,0,-4.6336,-4.6338,-4.634,-4.6395,-4.6574,-4.6575,-4.6807,-4.667,0,0,0,0,0,0,0,0,0,0,-4.6494,-4.6446,-4.6337,-4.634,-4.6396,-4.6574,-4.6576,-4.6663,-4.6679,-4.6726,0,-4.6769,0,-4.6793,-4.6826,-4.6827,0,0,0,-4.6393,-4.6433,-4.6481,-4.634,-4.6397,-4.6574,-4.6493,-4.6672,-4.6689,-4.6747,-4.6773,-4.6781,-4.6797,-4.6827,-4.6828,-4.7107,-4.7109,0,0,-4.6383,-4.6369,-4.647,-4.6493,-4.6465,-4.6487,-4.6498,-4.6682,-4.6709,-4.6773,-4.6787,-4.6801,-4.6829,-4.6831,-4.7106,-4.7108,0,0,0,-4.6355,-4.6362,-4.6406,-4.6483,-4.6516,-4.6492,-4.6505,-4.6701,-4.6717,-4.6789,-4.6804,-4.683,-4.6833,-4.7105,-4.7107,-4.7158,0,0,0,-4.6349,-4.6346,-4.6402,-4.6395,-4.6512,-4.6611,-4.652,-4.6704,-4.6725,-4.6803,-4.683,-4.6835,-4.7103,-4.7106,-4.7153,-4.7183,0,0,0,-4.6325,-4.6343,-4.6369,-4.6394,-4.6471,-4.6608,-4.6634,-4.6709,-4.6735,-4.6827,-4.6836,-4.7102,-4.7105,-4.7149,-4.7176,-4.7251,0,0,0,-4.6294,-4.6412,-4.637,-4.6508,-4.647,-4.6639,-4.6633,-4.676,-4.6845,-4.6831,-4.7103,-4.7107,-4.7148,-4.7172,-4.7247,-4.731,-4.7335,0,0,-4.6435,-4.6428,-4.6511,-4.6478,-4.6651,-4.6613,-4.6794,-4.6885,-4.6907,-4.7039,-4.7046,-4.7155,-4.7176,-4.725,-4.7489,-4.7509,0,0,0,-4.655,-4.6609,-4.6658,-4.6739,-4.6813,-4.6878,-4.6944,-4.6978,-4.7091,-4.6972,-4.7204,-4.7217,-4.7261,-4.7292,-4.7309,-4.7347,-4.7121,-4.7121,-4.712,-4.6726,-4.6749,-4.6886,-4.6932,-4.7011,-4.7079,-4.7145,-4.7202,-4.7202,-4.7256,-4.7294,-4.7436,-4.7472,-4.7485,-4.7524,-4.7332,-4.7332,-4.7333,-4.7333,-4.6932,-4.7017,-4.7017,-4.7149,-4.7173,-4.7285,-4.7356,-4.7352,-4.7459,-4.7409,-4.7449,-4.7389,-4.7506,-4.7542,-4.7337,-4.7336,-4.7336,-4.7335,-4.7335,-4.7047,-4.7092,-4.7133,-4.7254,-4.7345,-4.7388,-4.7492,-4.751,-4.7529,-4.7569,-4.761,-4.761,-4.7609,-4.7588,-4.7589,-4.7589,-4.759,-4.759,-4.759,-4.7148,-4.7193,-4.7278,-4.7369,-4.7424,-4.75,-4.7572,-4.7627,-4.7693,-4.7698,-4.7698,-4.7691,-4.7515,-4.7468,-4.7598,-4.7596,-4.7595,-4.7595,-4.7594,-4.7342,-4.7302,-4.7433,-4.7489,-4.7597,-4.7687,-4.7711,-4.7823,-4.7871,-4.7922,-4.7909,-4.7776,-4.777,-4.7756,-4.7717,-4.7904,-4.7904,-4.7904,-4.7904,-4.7437,-4.7437,-4.7576,-4.7664,-4.7753,-4.7789,-4.7937,-4.7996,-4.805,-4.8081,-4.8058,-4.801,-4.7996,-4.7998,-4.7979,-4.7943,-4.8183,-4.8184,-4.8184,-4.7557,-4.7567,-4.7688,-4.7741,-4.7829,-4.7903,-4.8043,-4.8144,-4.8198,-4.8196,-4.8106,-4.8095,-4.8017,-4.7991,-4.7982,-4.7952,-4.7887,0,0]},{"header":{"parameterUnit":"m.s-1","parameterCategory":1,"la1":30.2992,"la2":30.254,"lo1":-89.0895,"lo2":-89.0443,"dy":0.0025,"dx":0.0025,"nx":19,"ny":19,"refTime":"2026-04-04T03:00:00:Z","depth":0,"parameterNumber":3,"parameterNumberName":"V-component_of_WINDS"},"data":[0,0,0,2.8749,2.8751,2.8841,2.8841,2.895,2.8951,0,0,0,0,0,0,0,0,0,0,0,2.8719,2.872,2.8749,2.8751,2.8841,2.8841,2.895,2.8951,0,0,0,0,0,0,0,0,0,0,0,2.8719,2.872,2.8721,2.8751,2.8841,2.8841,2.895,2.8884,0,0,0,0,0,0,0,0,0,0,2.8797,2.8767,2.872,2.8721,2.8752,2.8841,2.8841,2.8881,2.8888,2.8907,0,2.8924,0,2.8939,2.8958,2.8958,0,0,0,2.8753,2.8761,2.8788,2.8721,2.8753,2.8841,2.8801,2.8885,2.8893,2.8916,2.8925,2.893,2.8941,2.8958,2.8959,2.9068,2.9068,0,0,2.8748,2.8733,2.8783,2.8794,2.878,2.8798,2.8804,2.889,2.8898,2.8926,2.8932,2.8943,2.8959,2.896,2.9067,2.9068,0,0,0,2.8732,2.873,2.8755,2.8789,2.8806,2.8801,2.8807,2.8894,2.8904,2.8933,2.8944,2.896,2.8961,2.9067,2.9067,2.9076,0,0,0,2.873,2.8721,2.8753,2.8745,2.8804,2.8851,2.8809,2.8898,2.8908,2.8944,2.896,2.8962,2.9066,2.9067,2.9074,2.9081,0,0,0,2.8714,2.8719,2.8731,2.8744,2.8782,2.885,2.8865,2.89,2.8914,2.8958,2.8962,2.9066,2.9067,2.9073,2.9079,2.9107,0,0,0,2.8693,2.8735,2.8731,2.8782,2.8781,2.8855,2.8864,2.8919,2.8958,2.896,2.9066,2.9067,2.9073,2.9078,2.9105,2.9127,2.9134,0,0,2.8737,2.8739,2.877,2.877,2.8841,2.8843,2.8915,2.8962,2.8979,2.9037,2.904,2.9075,2.9079,2.9106,2.9183,2.9189,0,0,0,2.8779,2.8801,2.8823,2.8861,2.8901,2.8935,2.8974,2.8993,2.9044,2.9006,2.9092,2.9095,2.9112,2.9123,2.9128,2.9143,2.9072,2.9072,2.9072,2.8818,2.884,2.8894,2.8927,2.8963,2.9006,2.9037,2.9069,2.9077,2.9098,2.9115,2.9159,2.9171,2.9175,2.9191,2.9128,2.9128,2.9128,2.9128,2.8884,2.8919,2.8935,2.8992,2.9015,2.9063,2.9106,2.9112,2.9159,2.9147,2.9163,2.9147,2.9181,2.9196,2.9129,2.9129,2.9129,2.9129,2.9129,2.8912,2.8933,2.8957,2.9016,2.9059,2.9091,2.9138,2.9157,2.9174,2.919,2.9211,2.9211,2.9213,2.9199,2.9199,2.9199,2.92,2.92,2.92,2.893,2.8958,2.8995,2.9044,2.9073,2.9112,2.9158,2.9186,2.9222,2.9232,2.9232,2.924,2.9181,2.9166,2.9202,2.9202,2.9201,2.9201,2.9201,2.8988,2.8979,2.9037,2.9067,2.9127,2.917,2.9195,2.9252,2.9278,2.93,2.9306,2.926,2.9262,2.9258,2.9246,2.9301,2.9301,2.9301,2.9301,2.9011,2.9016,2.9082,2.9127,2.9174,2.9204,2.927,2.9307,2.9343,2.9361,2.9356,2.9341,2.9337,2.9342,2.9336,2.9325,2.9399,2.9399,2.9399,2.9049,2.9059,2.9112,2.915,2.92,2.9242,2.9305,2.9357,2.9396,2.9404,2.9376,2.9371,2.9348,2.9339,2.9344,2.9335,2.9314,0,0]}]]